Quincy, IL

8:44 PM CST on November 21, 2019 (GMT -0600)
Quincy Regional-Baldwin

Weather History for KUIN - September, 2019

Change the Weather History Date:

Wednesday, September 11, 2019

  Actual Average Record
Temperature  
Mean Temperature 81 °F 68 °F  
Max Temperature 89 °F 79 °F 99 °F (1936)
Min Temperature 73 °F 58 °F 41 °F (1940)
Degree Days  
Heating Degree Days 0 1  
Month to date heating degree days 10  
Since 1 July heating degree days 15  
Cooling Degree Days 16 5  
Month to date cooling degree days 67  
Year to date cooling degree days 1020  
Growing Degree Days 31 (Base 50)    
Moisture  
Dew Point 71 °F    
Average Humidity 75    
Maximum Humidity 90    
Minimum Humidity 53    
Precipitation  
Precipitation 0.00 in 0.11 in 3.10 in (2006)
Month to date precipitation 1.22  
Year to date precipitation 26.97  
Sea Level Pressure  
Sea Level Pressure 30.06 in    
Wind  
Wind Speed 7 mph ()    
Max Wind Speed 13 mph    
Max Gust Speed 20 mph    
Visibility 9.5 miles    
Events      
T = Trace of Precipitation, MM = Missing Value Source: Averaged Metar Reports

Daily Weather History Graph

Daily Weather History Graph

Search for Another Location

Airport or City:

Astronomy

Sep. 11, 2019 Rise Set
Actual Time 6:41 AM CDT 7:20 PM CDT
Civil Twilight 6:14 AM CDT 7:47 PM CDT
Nautical Twilight 5:42 AM CDT 8:19 PM CDT
Astronomical Twilight 5:09 AM CDT 8:52 PM CDT
Moon 6:32 PM CDT (9/11) 4:04 AM CDT (9/11)
Length of Visible Light 13h 33m
Length of Day
12h 38m
Waxing Gibbous, 95% of the Moon is Illuminated
Sep 11
Waxing Gibbous
Sep 13
Full
Sep 21
Last Quarter
Sep 28
New
Oct 5
First Quarter

Hourly Weather History & Observations

Time (CDT) Temp. Heat Index Dew Point Humidity Pressure Visibility Wind Dir Wind Speed Gust Speed Precip Events Conditions
12:54 AM 73.0 °F - 70.0 °F 90% 30.09 in 8.0 mi SSW 4.6 mph - N/A   Clear
1:54 AM 73.9 °F - 70.0 °F 87% 30.10 in 9.0 mi South 5.8 mph - N/A   Clear
2:54 AM 73.0 °F - 70.0 °F 90% 30.09 in 10.0 mi South 5.8 mph - N/A   Clear
3:54 AM 73.0 °F - 70.0 °F 90% 30.09 in 9.0 mi South 5.8 mph - N/A   Clear
4:54 AM 73.0 °F - 70.0 °F 90% 30.09 in 9.0 mi SSW 6.9 mph - N/A   Clear
5:54 AM 73.9 °F - 70.0 °F 87% 30.09 in 10.0 mi SSW 6.9 mph - N/A   Clear
6:54 AM 73.0 °F - 70.0 °F 90% 30.09 in 7.0 mi South 8.1 mph - N/A   Clear
7:54 AM 75.0 °F - 71.1 °F 87% 30.11 in 7.0 mi South 9.2 mph - N/A   Clear
8:54 AM 78.1 °F - 72.0 °F 81% 30.12 in 9.0 mi SSW 10.4 mph - N/A   Clear
9:54 AM 81.0 °F 85.2 °F 72.0 °F 74% 30.12 in 10.0 mi SSW 11.5 mph - N/A   Clear
10:54 AM 84.0 °F 89.6 °F 72.0 °F 67% 30.11 in 10.0 mi SSW 11.5 mph - N/A   Clear
11:54 AM 86.0 °F 92.2 °F 72.0 °F 63% 30.10 in 10.0 mi SSW 12.7 mph - N/A   Clear
12:54 PM 87.1 °F 93.6 °F 72.0 °F 61% 30.09 in 10.0 mi SSW 11.5 mph - N/A   Clear
1:54 PM 89.1 °F 94.1 °F 70.0 °F 53% 30.08 in 10.0 mi SSW 12.7 mph - N/A   Clear
2:54 PM 88.0 °F 93.8 °F 71.1 °F 57% 30.06 in 10.0 mi SSW 12.7 mph 19.6 mph N/A   Scattered Clouds
3:54 PM 88.0 °F 93.8 °F 71.1 °F 57% 30.04 in 10.0 mi South 10.4 mph - N/A   Partly Cloudy
4:54 PM 87.1 °F 92.8 °F 71.1 °F 59% 30.02 in 10.0 mi South 8.1 mph - N/A   Partly Cloudy
5:54 PM 86.0 °F 91.5 °F 71.1 °F 61% 30.01 in 10.0 mi SSW 8.1 mph - N/A   Clear
6:54 PM 82.9 °F 87.5 °F 71.1 °F 67% 30.01 in 10.0 mi South 5.8 mph - N/A   Clear
7:54 PM 80.1 °F 83.6 °F 71.1 °F 74% 30.00 in 10.0 mi South 6.9 mph - N/A   Clear
8:54 PM 80.1 °F 83.2 °F 70.0 °F 71% 30.01 in 10.0 mi South 6.9 mph - N/A   Clear
9:54 PM 78.1 °F - 70.0 °F 76% 30.02 in 10.0 mi South 6.9 mph - N/A   Clear
10:54 PM 77.0 °F - 70.0 °F 79% 30.01 in 10.0 mi South 5.8 mph - N/A   Clear
11:54 PM 75.9 °F - 70.0 °F 82% 30.00 in 10.0 mi South 5.8 mph - N/A   Clear